FW6182 Weather Reports


time (UTC)temp
C
wind
direction
speed
KPH
gust
KPH
rain 1hr
cm
rain 24hr
cm
rain mn
cm
humidity
%
barometer
mb
20260505140318 10 139 9.7 20.9 0.00 0.00 0.10 82 480.0
20260505130151 10 162 16.1 30.6 0.08 0.00 0.10 80 650.4
20260505123103 10 180 11.3 20.9 0.08 0.00 0.10 84 652.6
20260505122602 10 162 11.3 20.9 0.05 0.00 0.08 83 699.9
20260505122102 10 178 12.9 20.9 0.03 0.00 0.05 82 755.0
20260505121601 10 93 8.0 20.9 0.00 0.00 0.03 81 853.3
20260505114440 10 167 12.9 24.1 0.00 0.00 0.03 80 689.9
20260505113939 10 179 14.5 29.0 0.00 0.00 0.03 80 736.1
20260505102140 11 138 12.9 25.7 0.00 0.00 0.03 82 619.3
20260505100607 11 158 11.3 20.9 0.00 0.00 0.03 84 602.7
20260505095034 11 133 9.7 20.9 0.00 0.00 0.03 82 558.2
20260505094533 11 124 8.0 20.9 0.00 0.00 0.03 82 554.9
20260505093001 11 74 11.3 20.9 0.00 0.00 0.03 82 543.6
20260505091945 11 122 14.5 29.0 0.00 0.00 0.03 82 596.2
20260505090928 11 137 14.5 22.5 0.00 0.00 0.03 83 589.0
20260505084838 11 157 12.9 32.2 0.03 0.00 0.03 83 609.5
20260505084337 11 153 17.7 32.2 0.03 0.00 0.03 83 614.4
20260505081732 12 130 17.7 25.7 0.03 0.00 0.03 85 524.6
20260505081231 12 94 11.3 25.7 0.03 0.00 0.03 85 526.2
20260505080730 12 94 12.9 29.0 0.03 0.00 0.03 85 565.3
20260505080229 12 134 12.9 33.8 0.03 0.00 0.03 84 599.7
20260505075728 13 139 16.1 33.8 0.03 0.00 0.03 84 620.1
20260505075227 13 153 19.3 33.8 0.00 0.00 0.00 83 617.4
20260505073654 15 106 24.1 46.7 0.00 0.00 0.00 74 772.8
20260505072637 19 7 32.2 25.7 0.00 0.00 0.00 62 1161.5
20260505072137 20 358 9.7 20.9 0.00 0.00 0.00 71 1236.2
20260505071636 20 358 4.8 20.9 0.00 0.00 0.00 70 1235.5
20260505071135 20 359 8.0 20.9 0.00 0.00 0.00 70 1236.3
20260505070634 20 359 9.7 20.9 0.00 0.00 0.00 70 1234.4
20260505070133 20 359 8.0 20.9 0.00 0.00 0.00 70 1231.8
20260505065633 20 359 8.0 20.9 0.00 0.00 0.00 70 1225.2
20260505064616 20 355 8.0 20.9 0.00 0.00 0.00 70 1209.5
20260505063559 20 343 6.4 20.9 0.00 0.00 0.00 70 1153.5
20260505063058 20 354 6.4 20.9 0.00 0.00 0.00 70 1198.9
20260505062042 20 0 4.8 20.9 0.00 0.00 0.00 70 1228.1
20260505061026 20 359 6.4 20.9 0.00 0.00 0.00 70 1217.4
20260505055453 20 355 6.4 19.3 0.00 0.00 0.00 70 1221.4
20260505054953 20 357 6.4 19.3 0.00 0.00 0.00 70 1219.8
20260505053936 20 354 6.4 19.3 0.00 0.00 0.00 70 1191.9
20260505052919 21 354 9.7 25.7 0.00 0.00 0.00 69 1179.7
20260505050314 21 333 6.4 19.3 0.00 0.00 0.00 69 1157.7
20260505041723 21 341 8.0 19.3 0.00 0.00 0.00 67 1127.1
20260505041222 21 323 6.4 19.3 0.00 0.00 0.00 67 1129.4
20260505040206 21 338 8.0 19.3 0.00 0.00 0.00 66 1175.0
20260505035149 22 320 8.0 24.1 0.00 0.00 0.00 65 1149.0
20260505034649 22 351 9.7 24.1 0.00 0.00 0.00 65 1183.7
20260505033633 22 325 6.4 20.9 0.00 0.00 0.00 65 1179.8
20260505033133 22 356 4.8 20.9 0.00 0.00 0.00 65 1205.3
20260505032632 22 354 6.4 20.9 0.00 0.00 0.00 65 1205.8
20260505032131 22 353 6.4 20.9 0.00 0.00 0.00 65 1203.8
20260505031630 22 352 8.0 20.9 0.00 0.00 0.00 65 1211.1
20260505023439 22 355 8.0 22.5 0.00 0.00 0.00 63 1198.2
20260505022422 22 356 9.7 20.9 0.00 0.00 0.00 63 1223.5
20260505020849 23 356 12.9 29.0 0.00 0.00 0.00 63 1222.2
20260505013214 23 347 12.9 40.2 0.00 0.00 0.00 62 1175.3
20260505011641 24 323 9.7 32.2 0.00 0.00 0.00 63 1166.4
20260505011140 24 349 14.5 32.2 0.00 0.00 0.00 62 1182.0
20260505010639 24 338 11.3 29.0 0.00 0.00 0.00 62 1171.1
20260505010138 24 342 16.1 33.8 0.00 0.00 0.00 62 1183.8
20260505005637 25 352 16.1 33.8 0.00 0.00 0.00 61 1190.3
20260505005136 25 349 19.3 32.2 0.00 0.00 0.00 61 1188.6
20260505004119 25 343 19.3 43.5 0.00 0.00 0.00 60 1186.7
20260505003103 25 350 19.3 32.2 0.00 0.00 0.00 60 1196.6
20260505001014 26 356 12.9 25.7 0.00 0.00 0.00 59 1203.9
20260504235957 26 350 14.5 30.6 0.00 0.00 0.00 57 1183.5
20260504234940 26 343 17.7 30.6 0.00 0.00 0.00 57 1189.8
20260504234439 26 354 11.3 35.4 0.00 0.00 0.00 57 1194.8
20260504232907 26 351 12.9 29.0 0.00 0.00 0.00 57 1200.1
20260504232406 27 354 12.9 29.0 0.00 0.00 0.00 56 1188.2
20260504231905 27 338 16.1 30.6 0.00 0.00 0.00 55 1167.7
20260504231405 27 351 16.1 30.6 0.00 0.00 0.00 55 1182.0
20260504230904 27 345 9.7 22.5 0.00 0.00 0.00 56 1180.4
20260504230403 27 344 9.7 29.0 0.00 0.00 0.00 55 1173.8
20260504225346 27 349 12.9 25.7 0.00 0.00 0.00 54 1163.0
20260504224845 27 342 14.5 25.7 0.00 0.00 0.00 53 1162.8
20260504223828 28 350 17.7 29.0 0.00 0.00 0.00 50 1175.3
20260504221224 28 339 14.5 25.7 0.00 0.00 0.00 50 1207.5
20260504220723 28 355 14.5 29.0 0.00 0.00 0.00 50 1229.7
20260504215150 28 359 16.1 32.2 0.00 0.00 0.00 48 1231.4
20260504214133 28 358 19.3 32.2 0.00 0.00 0.00 47 1235.1
20260504213116 28 359 27.4 37.0 0.00 0.00 0.00 47 1230.6
20260504212616 28 359 24.1 35.4 0.00 0.00 0.00 47 1222.1
20260504211044 28 347 19.3 32.2 0.00 0.00 0.00 49 1198.7
20260504205511 28 351 17.7 33.8 0.00 0.00 0.00 50 1183.8
20260504203422 29 341 17.7 30.6 0.00 0.00 0.00 49 1180.0
20260504202921 28 345 14.5 32.2 0.00 0.00 0.00 49 1179.7
20260504202421 28 342 20.9 35.4 0.00 0.00 0.00 49 1179.1
20260504201920 28 346 14.5 35.4 0.00 0.00 0.00 49 1176.9
20260504200903 28 339 17.7 35.4 0.00 0.00 0.00 49 1182.4
20260504194814 28 321 14.5 32.2 0.00 0.00 0.00 48 1171.3
20260504194313 28 357 11.3 29.0 0.00 0.00 0.00 49 1194.3
20260504193256 28 357 19.3 32.2 0.00 0.00 0.00 50 1219.9
20260504191723 27 355 17.7 30.6 0.00 0.00 0.00 50 1214.9
20260504191222 27 353 17.7 35.4 0.00 0.00 0.00 51 1204.9
20260504190721 27 339 20.9 35.4 0.00 0.00 0.00 49 1204.0
20260504190220 27 357 20.9 40.2 0.00 0.00 0.00 51 1218.7
20260504184647 27 358 20.9 37.0 0.00 0.00 0.00 49 1228.1
20260504183114 27 358 12.9 32.2 0.00 0.00 0.00 51 1232.8
20260504181541 26 351 22.5 35.4 0.00 0.00 0.00 52 1217.1
20260504181040 26 352 17.7 35.4 0.00 0.00 0.00 52 1226.0
20260504180539 26 356 22.5 35.4 0.00 0.00 0.00 50 1224.1
20260504180038 26 354 19.3 40.2 0.00 0.00 0.00 51 1216.0
20260504173950 26 355 22.5 35.4 0.00 0.00 0.00 52 1226.0
20260504172933 26 359 20.9 37.0 0.00 0.00 0.00 50 1232.2
20260504171916 26 354 20.9 35.4 0.00 0.00 0.00 52 1229.3
20260504171416 25 359 19.3 35.4 0.00 0.00 0.00 53 1235.6
20260504150955 22 356 19.3 30.6 0.00 0.00 0.00 54 1221.8